Location: Wanzleben
(52.0609°N, 11.4408°E)
Time: 17:46:34
(UTC+00:00)

COSMOS 2406 - Pass Details

Date: 23 January 2021
Orbit: 841 x 865 km, 71.0° (Epoch: 05 March)

Event Time Altitude Azimuth Distance (km) Brightness Sun altitude
Rises 16:48:47 0° 329° (NNW) 3,460 6.5 -9.6°
Reaches altitude 10° 16:51:32 10° 340° (NNW) 2,520 5.7 -10.0°
Maximum altitude 16:56:42 32° 43° (NE) 1,443 4.0 -10.7°
Drops below altitude 10° 17:01:50 10° 106° (ESE) 2,504 5.2 -11.5°
Enters shadow 17:02:03 - 107° (ESE) 2,574 5.2 -11.5°
